Starlink 11209

operational
NORAD ID: 61200 Int'l Des: 2024-171 Owner: SPXS Country: US Constellation: starlink
LEOCIRCULAR

Starlink 11209について

説明を読み込み中...

リアルタイム位置

3D地球を読み込み中...

次回通過

高度履歴

Altitude vs Time

uPlot chart will show altitude changes over time

軌道要素

1 61200U 24171A 26034.29230429 -.00001206 00000-0 -50970-5 0 9997
2 61200 53.1601 346.0274 0001284 79.6123 280.5039 15.69708056 79905
Epoch: Feb 3, 2026 • Age: 25 hours

現在のステータス

高度 360.6 km
速度 7.70 km/s
衛星直下点 28.68°N, 116.24°E
打ち上げ日 Sep 20, 2024
運用期間 1.3 years
タイプ internet

技術仕様

分類 Payload
質量 960.00 kg
乾燥質量 910.00 kg
総質量 960.00 kg
長さ 0.30 m
直径 4.10 m
スパン 29.00 m
形状 Box + pan
製造者 SPXS
バスタイプ Starlink V2MD
フェーズステータス In Orbit
所有者/国 SPXS/US

大規模コンステレーション

Loading constellations...